Location: Hermaringen
(48.5952°N, 10.2585°E)
Time: 13:15:04
(UTC+00:00)

SR - Pass Details

Date: 21 February 2026
Orbit: 572 x 849 km, 66.7° (Epoch: 12 March)

Event Time Altitude Azimuth Distance (km) Brightness Sun altitude
Rises 08:39:54 0° 326° (NW) 2,977 ? 19.7°
Reaches altitude 10° 08:43:41 10° 358° (N) 2,133 ? 20.2°
Maximum altitude 08:45:35 12° 21° (NNE) 2,027 ? 20.4°
Drops below altitude 10° 08:47:31 10° 44° (NE) 2,203 ? 20.6°
Sets 08:51:36 0° 75° (ENE) 3,199 ? 21.1°
